Location: Kolin
(50.0330°N, 15.2000°E)
Time: 23:55:36
(UTC+01:00)

ISS - Visible Passes

Search period start: 19 November 2019 00:00
Search period end: 29 November 2019 00:00
Orbit: 412 x 421 km, 51.6° (Epoch: 20 November)

Date Brightness Start Highest point End Pass type
(mag) Time Alt. Az. Time Alt. Az. Time Alt. Az.
22 Nov -1.4 18:28:54 10° SSW 18:29:56 16° S 18:29:56 16° S visible
23 Nov -1.8 17:41:14 10° S 17:43:27 17° SE 17:43:42 16° SE visible
23 Nov -0.5 19:16:24 10° WSW 19:16:37 11° WSW 19:16:37 11° WSW visible
24 Nov -1.3 16:54:23 10° SSE 16:55:16 11° SE 16:56:08 10° ESE visible
24 Nov -2.4 18:28:07 10° SW 18:30:18 33° SSW 18:30:18 33° SSW visible
25 Nov -2.8 17:39:57 10° SW 17:43:01 33° SSE 17:43:54 28° ESE visible
25 Nov -0.6 19:16:14 10° W 19:16:48 14° W 19:16:48 14° W visible
26 Nov -2.1 16:52:00 10° SSW 16:54:43 23° SE 16:57:26 10° E visible
26 Nov -2.9 18:27:47 10° WSW 18:30:21 50° WSW 18:30:21 50° WSW visible
27 Nov -3.6 17:39:23 10° WSW 17:42:42 64° SSE 17:43:51 36° E visible
27 Nov -0.5 19:16:10 10° W 19:16:45 14° W 19:16:45 14° W visible
28 Nov -3.1 16:51:04 10° SW 16:54:18 45° SSE 16:57:19 11° E visible
28 Nov -2.8 18:27:38 10° W 18:30:13 48° WNW 18:30:13 48° WNW visible
